TimeEST,TemperatureF,Dew PointF,Humidity,Sea Level PressureIn,VisibilityMPH,Wind Direction,Wind SpeedMPH,Gust SpeedMPH,PrecipitationIn,Events,Conditions,WindDirDegrees,DateUTC
12:15 AM,64.4,64.4,100,30.12,10.0,Calm,Calm,-,N/A,,Scattered Clouds,0,2013-01-30 05:15:00
12:35 AM,64.4,64.4,100,30.11,10.0,Calm,Calm,-,N/A,,Partly Cloudy,0,2013-01-30 05:35:00
12:55 AM,64.4,64.4,100,30.11,10.0,Calm,Calm,-,N/A,,Clear,0,2013-01-30 05:55:00
1:15 AM,64.4,64.4,100,30.11,10.0,Calm,Calm,-,N/A,,Partly Cloudy,0,2013-01-30 06:15:00
1:35 AM,64.4,64.4,100,30.11,10.0,Calm,Calm,-,N/A,,Clear,0,2013-01-30 06:35:00
1:55 AM,64.4,64.4,100,30.10,10.0,Calm,Calm,-,N/A,,Partly Cloudy,0,2013-01-30 06:55:00
2:15 AM,64.4,64.4,100,30.09,10.0,SE,3.5,-,N/A,,Partly Cloudy,140,2013-01-30 07:15:00
2:35 AM,66.2,64.4,94,30.09,10.0,SSE,3.5,-,N/A,,Partly Cloudy,150,2013-01-30 07:35:00
2:55 AM,66.2,64.4,94,30.08,10.0,SE,3.5,-,N/A,,Partly Cloudy,140,2013-01-30 07:55:00
3:15 AM,66.2,64.4,94,30.08,10.0,Calm,Calm,-,N/A,,Clear,0,2013-01-30 08:15:00
3:35 AM,66.2,64.4,94,30.08,10.0,SE,4.6,-,N/A,,Partly Cloudy,140,2013-01-30 08:35:00
3:55 AM,66.2,64.4,94,30.07,10.0,SE,5.8,-,N/A,,Partly Cloudy,140,2013-01-30 08:55:00
4:15 AM,66.2,64.4,94,30.06,10.0,SSE,6.9,-,N/A,,Clear,150,2013-01-30 09:15:00
4:35 AM,66.2,64.4,94,30.05,10.0,SSE,5.8,-,N/A,,Clear,150,2013-01-30 09:35:00
4:55 AM,66.2,64.4,94,30.04,10.0,SSE,5.8,-,N/A,,Clear,150,2013-01-30 09:55:00
5:15 AM,66.2,64.4,94,30.04,10.0,SSE,4.6,-,N/A,,Clear,150,2013-01-30 10:15:00
5:35 AM,66.2,64.4,94,30.05,10.0,SSE,5.8,-,N/A,,Clear,160,2013-01-30 10:35:00
5:55 AM,66.2,66.2,100,30.04,10.0,SSE,4.6,-,N/A,,Clear,150,2013-01-30 10:55:00
6:15 AM,66.2,66.2,100,30.04,10.0,SSE,4.6,-,N/A,,Clear,160,2013-01-30 11:15:00
6:35 AM,66.2,66.2,100,30.04,10.0,SSE,5.8,-,N/A,,Clear,160,2013-01-30 11:35:00
6:50 AM,66.2,66.2,100,30.04,10.0,South,8.1,-,N/A,,Clear,180,2013-01-30 11:50:00
7:50 AM,66.2,66.2,100,30.03,10.0,South,6.9,-,N/A,,Scattered Clouds,180,2013-01-30 12:50:00
8:50 AM,68.0,66.2,94,30.01,10.0,South,16.1,-,N/A,,Scattered Clouds,170,2013-01-30 13:50:00
9:50 AM,71.6,64.4,78,30.01,10.0,South,17.3,24.2,N/A,,Scattered Clouds,170,2013-01-30 14:50:00
10:50 AM,75.2,62.6,65,29.99,10.0,South,13.8,28.8,N/A,,Partly Cloudy,180,2013-01-30 15:50:00
11:50 AM,78.8,62.6,57,29.96,10.0,South,19.6,28.8,N/A,,Clear,180,2013-01-30 16:50:00
12:50 PM,80.6,62.6,54,29.93,10.0,South,16.1,28.8,N/A,,Clear,190,2013-01-30 17:50:00
2:50 PM,82.4,64.4,54,29.87,10.0,South,16.1,28.8,N/A,,Scattered Clouds,190,2013-01-30 19:50:00
3:50 PM,82.4,62.6,51,29.84,10.0,South,17.3,28.8,N/A,,Scattered Clouds,190,2013-01-30 20:50:00
6:50 PM,77.0,60.8,57,29.81,10.0,South,13.8,-,N/A,,Clear,190,2013-01-30 23:50:00
7:50 PM,75.2,59.0,57,29.81,10.0,SSW,13.8,24.2,N/A,,Clear,210,2013-01-31 00:50:00
8:15 PM,75.2,60.8,61,29.81,10.0,South,16.1,20.7,N/A,,Clear,180,2013-01-31 01:15:00
8:35 PM,75.2,62.6,65,29.81,10.0,South,15.0,21.9,N/A,,Clear,180,2013-01-31 01:35:00
8:55 PM,75.2,62.6,65,29.81,10.0,South,11.5,21.9,N/A,,Partly Cloudy,180,2013-01-31 01:55:00
9:15 PM,75.2,62.6,65,29.82,10.0,South,16.1,27.6,N/A,,Partly Cloudy,190,2013-01-31 02:15:00
9:35 PM,73.4,62.6,69,29.82,10.0,South,16.1,23.0,N/A,,Clear,190,2013-01-31 02:35:00
9:55 PM,73.4,62.6,69,29.82,10.0,South,15.0,21.9,N/A,,Mostly Cloudy,190,2013-01-31 02:55:00
10:15 PM,73.4,64.4,73,29.82,10.0,South,12.7,20.7,N/A,,Overcast,190,2013-01-31 03:15:00
10:35 PM,73.4,64.4,73,29.82,10.0,South,12.7,23.0,N/A,,Overcast,180,2013-01-31 03:35:00
10:55 PM,73.4,64.4,73,29.82,10.0,South,11.5,25.3,N/A,,Overcast,180,2013-01-31 03:55:00
11:15 PM,62.6,59.0,88,29.89,0.8,West,24.2,42.6,0.31,Rain,Heavy Rain,280,2013-01-31 04:15:00
11:35 PM,59.0,57.2,94,29.91,5.0,West,18.4,28.8,0.33,Rain,Light Rain,280,2013-01-31 04:35:00
11:55 PM,57.2,57.2,100,29.91,8.0,West,10.4,-,0.33,Rain,Light Rain,260,2013-01-31 04:55:00